This is the latest recevied weather packets stored in our database for station/object AC2VK-1. If no packets are shown the sender has not sent any weather packets the latest 10 day(s).
| Time | Temp. | Humidity | Pressure | Rain* | Wind** | Luminosity | Snow |
|---|---|---|---|---|---|---|---|
| 1777384777 | 14.44° C | 95% | 1021.1 hPa | 0 mm | - | - | - |
| 1777384177 | 14.44° C | 95% | 1019.5 hPa | 0 mm | - | - | - |
| 1777383577 | 14.44° C | 95% | 1020.4 hPa | 0 mm | - | - | - |
| 1777382977 | 14.44° C | 95% | 1020.9 hPa | 0 mm | - | - | - |
| 1777382377 | 14.44° C | 95% | 1020.9 hPa | 0 mm | - | - | - |
| 1777381777 | 14.44° C | 95% | 1021.3 hPa | 0 mm | - | - | - |
| 1777381177 | 14.44° C | 95% | 1021.4 hPa | 0.25 mm | - | - | - |
| 1777380577 | 14.44° C | 95% | 1021.4 hPa | 0.51 mm | - | - | - |
| 1777379977 | 13.89° C | 95% | 1020.8 hPa | 0.76 mm | - | - | - |
| 1777379378 | 13.89° C | 95% | 1020.2 hPa | 1.52 mm | - | - | - |
| 1777378777 | 13.89° C | 95% | 1019.8 hPa | 2.29 mm | - | - | - |
| 1777378177 | 13.89° C | 95% | 1020.1 hPa | 3.05 mm | - | - | - |
| 1777377578 | 13.89° C | 94% | 1019.8 hPa | 3.3 mm | - | - | - |
| 1777376978 | 13.89° C | 94% | 1021.8 hPa | 3.56 mm | - | - | - |
| 1777376378 | 13.89° C | 94% | 1022.2 hPa | 4.57 mm | - | - | - |
| 1777375778 | 13.89° C | 94% | 1022.6 hPa | 4.57 mm | - | - | - |
| 1777375178 | 13.89° C | 94% | 1023 hPa | 4.57 mm | - | - | - |
| 1777374578 | 13.89° C | 94% | 1022.6 hPa | 4.57 mm | - | - | - |
| 1777373978 | 13.89° C | 93% | 1022.8 hPa | 5.84 mm | - | - | - |
| 1777373378 | 13.89° C | 93% | 1023.1 hPa | 7.37 mm | - | - | - |
| 1777372778 | 13.89° C | 93% | 1022.2 hPa | 7.37 mm | - | - | - |
| 1777372178 | 14.44° C | 93% | 1021.4 hPa | 7.37 mm | - | - | - |
| 1777371578 | 14.44° C | 93% | 1020.8 hPa | 7.11 mm | - | - | - |
| 1777370978 | 14.44° C | 92% | 1020.5 hPa | 6.6 mm | - | - | - |
| 1777370378 | 14.44° C | 92% | 1021.6 hPa | 6.86 mm | - | - | - |
* Rain latest hour (hover to see other rain measurements)
** Current wind speed in m/s (hover to see current wind gust speed)